Location: Tumbler Ridge
(55.1167°N, 121.0000°W)
Time: 17:46:23
(UTC-07:00)

Daily predictions for brighter satellites

Satellite Brightness Start Highest point End
(mag) Time Altitude Azimuth Time Altitude Azimuth Time Altitude Azimuth
Cosmos 1452 Rocket 3.7 18:12:07 10° NNW 18:17:24 83° WSW 18:22:40 10° SSE
SL-16 R/B 3.4 18:12:46 10° NNW 18:17:28 26° NNE 18:22:10 10° E
NOSS 0 Rocket 4.2 18:12:02 10° NNW 18:18:05 51° NE 18:24:04 10° ESE
Sich 1 4.2 18:19:16 10° N 18:22:48 23° ENE 18:26:21 10° ESE
SMAP 3.2 18:18:08 10° SSE 18:22:48 83° WSW 18:27:30 10° NNW
BREEZE-M DEB (TANK) 4.3 18:20:45 10° WSW 18:23:59 38° S 18:33:03 10° ESE
Cosmos 1400 Rocket 3.0 18:19:55 10° NNW 18:23:59 79° WSW 18:27:58 10° S
Cosmos 2360 Rocket 3.0 18:19:56 10° NW 18:25:28 57° WSW 18:31:00 10° SSE
Cosmos 1867 4.5 18:20:51 10° W 18:26:04 44° NNW 18:31:19 10° NE
CZ-2C R/B 4.1 18:23:02 10° SSW 18:27:20 38° W 18:31:44 10° NNW
SPOT 3 Rocket 3.7 18:22:39 10° SE 18:27:41 52° ENE 18:32:46 10° N
Aureole 1 Rocket 3.3 18:22:26 10° SSW 18:27:57 73° ESE 18:32:08 10° NNE
COSMO-SKYMED 1 3.6 18:25:39 10° NE 18:29:19 26° E 18:32:56 10° SSE
Cosmos 1980 4.1 18:24:19 10° NNW 18:29:46 45° NE 18:35:10 10° ESE
ATLAS 5 CENTAUR R/B 3.1 18:25:01 10° WNW 18:29:46 36° N 18:35:03 10° ENE
Cosmos 2151 3.0 18:26:11 10° N 18:30:31 86° E 18:34:46 10° SSE
USA 234 3.4 18:24:28 10° ENE 18:31:03 79° N 18:37:37 10° W
Cosmos 2058 2.9 18:27:15 10° NNW 18:31:29 86° E 18:35:39 10° SSE
Cosmos 1110 Rocket 4.4 18:27:34 10° NNW 18:32:40 43° NE 18:37:43 10° ESE
Cosmos 1953 4.5 18:30:23 10° SW 18:33:57 29° WNW 18:37:32 10° N
FREGAT/IRIS 4.3 18:34:19 10° ESE 18:36:19 17° ENE 18:38:19 10° NNE
Resurs 01 Rocket 3.4 18:35:21 10° E 18:37:41 14° NE 18:40:02 10° NNE
Cosmos 2082 Rocket 3.8 18:32:58 10° W 18:38:01 31° NW 18:43:06 10° NNE
Cosmos 1805 Rocket 4.0 18:35:09 10° N 18:39:20 41° ENE 18:43:31 10° SE
COSMOS 2428 2.8 18:34:13 10° NW 18:39:57 84° WSW 18:45:39 10° SSE
Cosmos 2098 Rocket 4.4 18:37:54 10° SE 18:42:34 33° E 18:48:13 10° NNE
Cosmos 2333 Rocket 2.3 18:37:02 10° NNW 18:42:46 66° NE 18:48:30 10° SE
CZ-4C R/B 3.4 18:39:36 10° SSE 18:43:38 22° ESE 18:48:03 10° ENE
Cosmos-2242 3.7 18:42:09 10° SSW 18:46:20 59° WNW 18:50:34 10° N
FENGYUN 3A 3.8 18:41:53 10° SE 18:47:08 54° ENE 18:52:26 10° N
Cosmos 44 Rocket 4.4 18:43:31 10° S 18:47:16 24° ESE 18:50:39 12° ENE
Cosmos 1666 Rocket 4.1 18:44:42 10° N 18:48:44 35° ENE 18:52:42 10° SE
GRACE-2 4.0 18:47:20 10° SSE 18:49:47 40° E 18:52:14 10° NNE
Cosmos 2366 rocket 4.0 18:43:58 10° S 18:50:10 85° E 18:56:22 10° NNE
Cosmos 1833 4.2 18:44:50 10° SSW 18:50:24 62° ESE 18:55:58 10° NE
ERS-2 3.0 18:47:05 10° S 18:50:43 56° WSW 18:54:23 10° NNW
Cosmos 2219 4.1 18:46:14 10° SSE 18:51:01 28° ESE 18:55:48 10° NE
Cosmos 1633 Rocket 3.7 18:49:15 10° N 18:53:18 33° ENE 18:57:19 10° SE
Cosmos 158 Rocket 4.5 18:48:46 10° S 18:53:29 38° ESE 18:58:20 10° NE
Cosmos 1461 3.5 18:50:22 10° WSW 18:54:28 57° NW 18:58:49 10° NE
MOS 1 4.4 18:49:06 10° SSE 18:54:48 88° WSW 19:00:33 10° NNW
EO 1 Del DPAF 3.5 18:51:16 10° NNE 18:54:59 45° E 18:58:42 10° S
GRACE-1 3.8 18:53:00 10° SSE 18:55:32 51° E 18:58:04 10° N
Lacrosse 4 Rocket 3.7 18:54:44 10° NW 18:57:30 16° N 19:00:13 10° NNE
Cosmos 1726 3.1 18:54:29 10° SSE 18:57:34 25° E 19:00:39 10° NNE
YAOGAN 1 3.1 18:53:33 10° S 18:57:51 65° WSW 19:02:12 10° NNW
Landsat 4 3.6 18:54:44 10° NNE 18:58:30 78° ESE 19:02:14 10° SSW
Cosmos 1833 Rocket 4.5 18:53:55 10° W 18:58:35 26° NNW 19:03:15 10° NNE
APEX 3.8 18:56:43 10° SSE 18:58:57 21° ESE 18:59:37 19° E
Cosmos 1048 Rocket 4.5 18:55:03 10° S 18:59:41 36° ESE 19:04:22 10° NE
CZ-4 R/B 2.7 18:56:41 10° S 19:00:42 45° W 19:04:40 10° NNW
SL-8 Rocket 4.5 18:55:31 10° SSW 19:01:43 67° WNW 19:08:00 10° N
CZ-2C R/B 3.6 18:57:17 10° NNE 19:01:52 83° ESE 19:06:21 10° SSW
Envisat 4.1 19:05:02 15° E 19:07:53 25° NE 19:11:57 10° N
Meteor 1-28 Rocket 3.2 19:04:40 10° NNE 19:08:30 87° WNW 19:12:17 10° SSW
Cosmos 2219 Rocket 2.4 19:06:32 10° NW 19:12:09 77° WSW 19:17:45 10° SSE
Cosmos 1315 Rocket 3.9 19:08:39 10° NNW 19:12:36 49° W 19:16:34 10° S
Cosmos 2084 4.1 19:08:59 10° WNW 19:12:39 48° SW 19:16:22 10° SSE
Cosmos 1000 Rocket 4.5 19:09:40 10° N 19:15:58 88° ENE 19:22:10 10° S
NOAA 12 4.1 19:11:03 10° SSE 19:16:23 90° S 19:21:46 10° NNW
SKYMED 2 3.5 19:13:20 10° NNE 19:17:41 65° ESE 19:22:00 10° S
Cosmos 2221 2.5 19:14:07 10° S 19:18:26 66° E 19:22:48 10° NNE
Thor Agena Rocket 4.1 19:15:41 10° NNE 19:20:17 32° E 19:24:48 10° SSE
GP-B 4.0 19:17:01 10° N 19:21:22 53° W 19:25:41 10° SSW
FengYun 1-2 T 4.2 19:16:23 10° SSE 19:21:47 62° ENE 19:27:13 10° NNW
HJ-1C 3.9 19:20:51 22° ESE 19:22:34 38° ENE 19:25:48 10° N
ALOS 2.3 19:17:56 10° SSE 19:22:38 86° WSW 19:27:21 10° NNW
Cosmos 1934 Rocket 4.2 19:17:54 10° SSE 19:23:56 47° E 19:29:59 10° NNE
Cosmos 1821 Rocket 4.0 19:19:45 10° S 19:25:50 60° E 19:32:03 10° NNE
Cosmos 1331 Rocket 3.9 19:20:56 10° NNW 19:26:14 83° ENE 19:31:27 10° SSE
Cosmos 2239 Rocket 4.4 19:25:05 10° S 19:31:07 64° E 19:37:15 10° NNE
GENESIS II 4.2 19:29:00 10° SW 19:33:00 90° NNE 19:35:28 22° NE
Aureole 2 Rocket 4.2 19:34:30 10° NW 19:38:09 39° WSW 19:41:56 10° S
Cosmos 1908 3.6 19:34:18 10° SSW 19:38:12 67° WNW 19:42:06 10° N
Lacrosse 5 rocket 1.5 19:34:21 10° W 19:38:45 68° N 19:40:28 34° ENE
SJ-6B 2.6 19:37:15 18° SSE 19:39:54 63° ENE 19:43:39 10° N
BREEZE-M DEB (TANK) 4.2 19:33:50 10° WSW 19:43:25 36° SSW 19:45:54 21° SE
In-Cosmos 22 Rocket 4.2 19:41:20 10° NNW 19:47:06 87° ENE 19:52:56 10° SSE
Cosmos 1470 Rocket 3.6 19:42:52 10° N 19:47:18 55° ENE 19:49:38 26° SE
H-2A R/B 2.7 19:43:41 10° SSE 19:47:37 89° SW 19:51:36 10° NNW
Abrixas rocket 4.1 19:45:11 10° WSW 19:47:44 21° SSW 19:48:35 19° S
DMSP B5D1-3 4.4 19:42:40 10° NNE 19:47:50 75° ESE 19:52:59 10° S
BREEZE-M DEB (TANK) 4.0 19:46:31 10° S 19:46:34 10° S 19:46:34 10° S
Cosmos 2123 Rocket 4.0 19:42:35 10° NNW 19:48:52 89° E 19:55:10 10° S
Cosmos 2237 Rocket 2.4 19:43:53 10° NW 19:49:36 74° WSW 19:55:17 10° SSE
Cosmos 44 2.9 19:46:27 10° SSW 19:50:43 63° SE 19:52:16 37° ENE
Cosmos 1943 4.4 19:49:17 10° NNW 19:54:05 27° NNE 19:55:32 24° NE
Cosmos 1269 Rocket 3.9 19:49:49 10° SSW 19:55:05 79° ESE 20:00:25 10° NNE
Cosmos 1302 Rocket 3.9 19:50:24 10° NNW 19:55:40 85° ENE 19:59:12 21° SSE
Cosmos 1605 Rocket 3.9 19:54:24 10° S 20:00:20 57° E 20:06:18 10° NNE
Sich 1 3.7 19:56:32 10° NNW 20:00:50 55° W 20:05:09 10° S
Cosmos 1892 2.6 19:57:10 10° N 20:00:59 60° ENE 20:01:03 60° E
BREEZE M DEB (TANK) 3.9 19:58:04 10° W 20:01:11 19° SW 20:02:09 16° S
Cosmos 1300 2.5 19:58:02 10° S 20:01:52 80° E 20:05:43 10° NNE
MOS 1-B Rocket 3.9 19:56:56 14° SSE 20:02:06 75° ENE 20:08:43 10° NNW
SL-16 R/B 2.1 19:56:50 10° NNW 20:02:34 73° NE 20:05:09 34° SE
Cosmos 1603 4.3 19:57:31 10° NNW 20:02:50 39° NE 20:04:05 34° ENE
Cosmos 2227 Rocket 2.7 19:58:37 10° S 20:03:07 35° ESE 20:03:07 35° ESE
COSMO-SKYMED 1 3.5 20:01:30 10° N 20:05:43 50° WNW 20:09:55 10° SW
Iridium 4 Rocket 4.3 20:00:31 10° SSW 20:06:15 63° W 20:12:10 10° N
FREGAT/IRIS 3.9 20:05:35 17° SSW 20:07:32 41° W 20:10:25 10° NNW
Spot 2 Rocket 3.4 20:09:46 43° SE 20:11:17 62° ENE 20:16:19 10° NNW
Cosmos 494 Rocket 4.0 20:07:48 10° S 20:12:45 52° ESE 20:13:13 50° E
Resurs 01 Rocket 1.5 20:12:41 57° SE 20:13:26 70° ENE 20:17:51 10° NNW
USA 234 3.2 20:11:06 37° E 20:14:02 84° NNE 20:20:38 10° WNW
CZ-2D R/B 3.1 20:14:20 65° SSE 20:14:53 89° ENE 20:18:49 10° NNW
ATLAS 5 CENTAUR R/B 2.8 20:10:23 10° NW 20:15:35 44° NNE 20:17:10 36° ENE
Resurs 1-3 3.5 20:15:52 63° ESE 20:16:21 70° ENE 20:20:45 10° NNW
Cosmos 1992 Rocket 4.1 20:14:22 10° NNW 20:19:33 55° NE 20:20:04 53° E
Meteor 2-3 Rocket 3.7 20:15:33 10° NNW 20:21:23 90° WNW 20:25:10 22° SSE
USA 32 4.0 20:16:27 10° N 20:21:45 87° W 20:25:55 16° S
Meteor 2-17 Rocket 4.5 20:17:39 10° SSE 20:23:32 53° E 20:29:28 10° NNE
Cosmos 2098 Rocket 4.4 20:18:22 10° SSW 20:23:34 57° WNW 20:30:06 10° N
Cosmos 2082 Rocket 4.4 20:20:18 10° NW 20:24:00 17° N 20:27:43 10° NNE
Cosmos 1447 Rocket 4.5 20:20:05 10° NNW 20:26:29 87° W 20:32:06 14° S
Cosmos 2333 Rocket 3.9 20:21:43 10° NW 20:26:42 31° WSW 20:31:40 10° SSW
Cosmos 44 Rocket 3.2 20:23:38 10° SW 20:28:20 79° NW 20:29:24 54° NNE
Cosmos 2228 Rocket 4.2 20:32:27 32° NNE 20:32:27 32° NNE 20:35:00 10° NNE
CZ-4C R/B 2.2 20:25:40 10° SW 20:31:09 81° SE 20:33:19 43° NE
Cosmos 1726 3.7 20:29:21 10° SW 20:32:45 34° WNW 20:36:10 10° N
H-2A R/B 3.6 20:35:14 22° NNE 20:35:14 22° NNE 20:38:17 10° N
Cosmos 1933 Rocket 3.8 20:30:17 10° NNW 20:34:38 66° W 20:35:41 48° SSW
Cosmos 2219 3.4 20:28:59 10° SW 20:34:44 72° NW 20:39:41 14° NNE
Geosat 4.1 20:35:28 56° NE 20:35:28 56° NE 20:40:23 10° NNW
Meteor 2-10 4.3 20:31:11 10° SSW 20:36:14 67° WNW 20:41:28 10° N
Lacrosse 4 Rocket 3.6 20:34:57 10° NNW 20:37:41 17° NNE 20:37:41 17° NNE
Cosmos 1328 Rocket 4.1 20:33:26 10° SSW 20:38:59 49° N 20:42:15 10° N
Cosmos 1825 4.4 20:35:00 10° N 20:36:02 17° N 20:36:02 17° N
Cosmos 2297 Rocket 3.4 20:35:19 10° S 20:37:56 27° S 20:37:56 27° S
SJ-11-01 4.5 20:44:14 62° NNE 20:44:14 62° NNE 20:48:19 10° NNW
Envisat 3.1 20:45:15 51° S 20:46:29 73° WSW 20:51:36 10° NNW
ARGOS 4.2 20:50:29 32° NNE 20:50:29 32° NNE 20:54:03 10° N
Cosmos 1939 Rocket 4.1 20:54:32 38° NNW 20:54:32 38° NNW 20:57:12 10° NNW
ERS-1 Rocket 4.2 20:56:24 31° NNE 20:56:24 31° NNE 20:59:23 10° N
Thor Agena Rocket 4.3 20:54:52 10° N 20:59:49 50° WNW 21:04:41 10° SW
Cosmos 1459 Rocket 4.3 21:06:05 54° NE 21:06:05 54° NE 21:11:06 10° NNE
Lacrosse 5 rocket 3.1 21:13:49 10° WNW 21:16:10 31° WNW 21:16:10 31° WNW
Cosmos 2100 Rocket 4.4 21:39:53 58° NNW 21:39:53 58° NNW 21:44:54 10° N
Cosmos 1943 4.0 21:33:18 10° NNW 21:37:21 47° NNW 21:37:21 47° NNW
Tsikada Rocket 4.3 21:33:54 10° NNW 21:38:57 59° NNW 21:38:57 59° NNW
SL-16 R/B 3.8 21:41:31 10° NW 21:46:13 27° WSW 21:47:03 26° WSW
Cosmos 2227 Rocket 3.6 21:42:01 10° SW 21:45:03 31° WSW 21:45:03 31° WSW
Resurs 01 Rocket 4.0 21:50:16 19° W 21:50:23 19° W 21:53:35 10° NW
USA 234 3.8 21:58:27 51° WSW 21:58:27 51° WSW 22:03:49 10° WNW
ATLAS 5 CENTAUR R/B 3.3 21:55:07 10° NW 21:58:43 42° NW 21:58:43 42° NW
Cosmos 2082 Rocket 4.3 22:06:17 10° NNW 22:09:35 19° N 22:09:35 19° N
Terra 4.5 22:14:53 14° N 22:14:53 14° N 22:15:33 10° N
H-2A R/B 3.9 22:15:53 28° NNW 22:15:53 28° NNW 22:18:20 10° NNW
CZ-4C R/B 3.6 22:14:36 10° W 22:18:32 38° WNW 22:18:32 38° WNW
